Location: Prague
(50.0830°N, 14.4670°E)
Time: 22:27:26
(UTC+02:00)

N. Korean satellite - Pass Details

Date: 04 October 2021
Orbit: 450 x 494 km, 97.3° (Epoch: 28 October)

Event Time Altitude Azimuth Distance (km) Brightness Sun altitude
Rises 05:57:40 0° 19° (NNE) 2,559 10.6 -11.9°
Reaches altitude 10° 05:59:50 10° 28° (NNE) 1,681 9.8 -11.6°
Maximum altitude 06:03:15 38° 98° (E) 760 8.2 -11.0°
Drops below altitude 10° 06:06:40 10° 168° (SSE) 1,685 9.4 -10.5°
Sets 06:08:50 0° 176° (S) 2,566 10.2 -10.1°
